Theta_e
326 326 333 334 330 329 331 332 324 328 330 330 329 329 332 333 335 334 333 329 325 315 321 320 317 311 312 312 320 329 333 333 333 334 335 334 329 322 317 309 308 309 310 309 310 310 310 310 310
336 335 335 331 331 333 332 328 328 327 334 334 334 335 335 337 336 331 330 327 320 315 321 321 319 316 311 312 317 328 329 331 332 332 332 330 326 322 313 309 308 308 309 309 309 309 310 310 310
333 333 330 329 330 334 335 329 325 331 330 330 334 335 336 337 334 328 328 325 317 318 327 317 331 328 316 311 311 320 326 325 323 324 323 321 317 311 309 308 308 308 309 309 309 309 309 310 310
327 330 326 330 333 332 331 329 328 331 329 331 334 335 336 336 330 329 324 322 316 324 326 316 328 328 328 328 324 313 314 314 313 311 310 310 309 309 308 308 309 309 309 309 310 310 310 310 310
326 327 327 329 330 330 330 328 331 328 326 331 332 336 335 334 334 326 320 319 315 323 328 323 319 319 317 313 312 312 311 311 310 310 310 309 309 308 308 309 310 310 310 311 312 313 314 314 315
325 325 328 330 328 327 326 326 327 324 327 332 335 335 335 336 334 328 321 317 316 322 328 332 329 326 317 314 314 312 313 313 312 310 310 310 310 310 311 312 313 314 315 317 318 318 318 319 319
324 325 328 327 327 329 327 325 324 324 328 330 334 334 336 337 335 331 324 318 317 319 326 331 330 327 317 317 316 315 316 314 313 312 312 312 312 313 314 316 317 318 318 319 318 318 317 316 316
326 322 328 328 329 329 323 324 323 325 325 329 333 331 335 337 335 333 326 321 319 317 318 320 322 320 318 320 320 320 317 316 315 314 314 315 317 318 319 320 319 319 319 319 318 318 317 317 317
326 323 327 329 328 325 323 323 322 324 328 331 331 330 332 336 335 334 327 325 322 319 318 319 320 323 323 324 324 321 318 318 318 318 318 319 319 319 319 318 318 317 316 315 315 315 315 316 317
322 323 324 324 322 323 323 323 323 326 328 328 330 330 334 336 335 334 331 329 324 318 317 318 318 320 322 322 323 322 320 319 319 319 319 319 318 318 318 318 318 317 316 317 317 317 317 318 318
322 324 321 321 323 323 323 324 323 324 326 327 328 331 336 336 336 335 333 330 321 316 314 314 315 316 317 318 319 319 319 319 320 319 319 319 319 319 319 319 319 319 319 318 319 319 319 319 320
325 323 323 323 323 322 322 323 323 324 324 324 327 328 335 337 336 336 333 329 322 318 316 316 315 316 316 317 318 319 320 321 321 320 320 320 320 320 321 321 321 321 322 321 321 320 321 321 322
324 323 324 325 324 325 323 323 323 324 324 326 326 330 335 337 336 335 333 331 326 321 320 321 321 321 321 321 322 321 321 321 320 321 322 322 323 324 324 325 325 326 327 327 326 326 326 327 326
325 324 324 325 324 324 322 323 324 324 324 326 328 331 336 336 335 335 334 331 326 323 322 323 323 324 323 323 322 322 323 324 324 325 325 326 326 327 328 328 330 331 332 331 331 330 329 328 328
324 325 322 321 322 322 324 324 324 325 328 329 331 332 334 335 335 334 332 330 327 324 324 325 325 324 323 324 324 325 326 327 327 328 328 329 329 329 330 330 331 332 332 330 329 328 327 327 327
326 325 326 322 320 322 324 326 323 325 330 332 332 333 333 334 335 334 333 332 331 330 328 326 326 326 326 327 328 328 328 329 329 330 330 330 330 330 331 332 331 329 328 328 327 326 326 326 327
326 329 326 325 318 320 323 325 322 327 332 332 333 333 333 334 335 334 334 334 333 331 331 330 329 329 329 330 330 331 331 332 332 332 332 331 331 331 331 330 328 327 325 325 325 324 324 324 323
328 327 326 324 319 318 322 323 321 327 331 331 333 333 333 334 334 334 335 335 334 333 333 332 332 331 331 331 331 332 332 332 332 332 332 332 331 330 328 324 323 327 323 324 322 323 322 318 315
325 326 327 323 318 320 321 323 322 322 328 329 332 333 334 334 334 334 335 335 335 334 334 333 333 332 331 331 332 332 332 333 332 332 332 329 325 321 319 320 322 322 322 320 317 315 314 312 311
325 326 327 321 319 319 319 322 320 319 324 328 330 332 333 334 334 334 335 335 335 335 334 333 333 332 332 332 332 332 332 331 330 324 320 319 318 317 318 318 318 317 315 314 312 311 310 309 309
326 327 326 326 320 319 319 322 320 317 319 324 328 331 332 333 333 333 334 335 335 334 333 332 332 332 332 331 331 328 323 319 317 317 316 315 315 315 315 314 313 312 310 309 309 308 308 308 307
328 324 325 322 326 329 321 329 321 317 317 317 322 327 330 330 329 331 331 332 331 331 331 331 330 330 328 325 318 313 312 313 313 314 314 313 313 312 310 309 309 308 308 307 306 305 304 304 304
325 323 325 324 326 326 325 327 323 316 318 315 313 321 326 326 325 326 325 326 326 326 326 323 323 321 315 312 312 312 313 313 313 312 311 310 309 309 308 307 306 304 303 303 302 302 301 301 301
318 319 319 319 324 327 326 327 324 319 317 315 309 312 317 318 318 318 317 318 319 317 316 314 312 312 313 312 312 311 311 311 310 309 309 308 306 305 304 303 302 301 301 301 301 300 300 300 299
320 324 322 323 324 327 317 326 325 320 318 314 310 310 312 313 313 313 312 311 312 312 312 312 312 310 310 309 308 308 307 307 306 306 305 304 303 303 302 301 302 302 301 301 300 299 298 298 297
322 323 323 326 324 320 317 326 325 314 313 311 310 310 310 311 311 311 312 311 311 311 310 309 308 308 308 307 307 306 306 306 305 304 304 303 302 302 302 302 301 300 299 299 298 298 297 297 296
319 323 313 312 306 318 320 317 311 314 311 311 310 310 311 310 311 312 311 310 308 309 310 308 308 308 308 307 307 307 306 305 304 303 302 302 302 302 302 300 299 298 298 297 296 295 294 294 293
318 314 318 316 316 318 313 310 314 312 314 311 311 310 310 310 309 309 310 312 312 315 313 309 308 307 307 307 306 306 305 304 303 302 302 302 302 301 300 298 298 296 295 294 293 293 292 292 292
317 317 315 315 314 318 316 315 305 307 316 313 312 310 310 312 316 317 316 313 311 310 310 308 307 307 307 306 306 305 304 302 302 302 302 301 300 299 298 296 294 293 293 292 291 291 291 290 290
314 316 315 318 318 311 314 311 306 306 308 314 313 311 313 318 318 317 316 312 308 308 308 308 308 307 306 305 304 303 302 302 301 301 301 299 298 296 294 293 292 291 291 291 290 290 290 290 289
Wind_Speed
5 7 6 1 2 3 1 3 1 1 2 3 8 4 4 5 2 2 15 15 19 19 19 15 12 11 14 16 17 14 13 13 13 12 11 6 4 4 7 9 9 9 9 10 10 11 10 10 11
2 1 1 1 3 2 2 2 3 3 4 15 12 8 4 3 4 14 17 20 19 19 19 17 16 14 16 17 16 14 12 11 9 8 5 1 2 5 7 8 9 8 10 9 9 9 9 10 11
3 4 1 3 2 3 3 3 4 7 7 3 4 6 3 2 8 19 18 22 21 20 19 19 17 15 16 16 15 14 11 9 7 5 4 2 3 4 5 6 7 8 9 10 10 10 10 11 11
3 2 2 3 3 4 3 1 6 10 2 2 9 7 5 2 20 12 21 21 21 21 20 19 18 16 15 14 13 12 10 7 6 4 2 1 2 3 5 7 8 8 9 10 10 9 9 9 10
1 0 2 2 2 2 3 2 16 6 4 4 3 4 5 15 9 18 21 21 20 22 20 18 16 14 11 11 10 9 8 5 3 2 2 3 4 5 6 6 7 8 8 8 8 8 8 9 9
2 2 2 3 3 3 2 4 7 6 6 7 7 7 8 9 12 21 20 20 19 20 21 18 16 13 11 10 9 8 7 5 5 5 5 6 6 6 6 6 7 7 7 7 7 8 8 8 9
3 2 3 2 2 3 4 7 6 6 8 5 10 4 6 13 19 20 19 19 18 19 20 19 16 13 11 9 9 8 7 7 7 7 6 6 7 6 6 6 6 6 7 7 7 8 9 9 10
3 2 2 2 2 3 4 2 3 4 4 8 7 6 7 20 25 22 20 18 18 17 17 16 15 12 11 10 9 7 7 7 8 7 6 6 6 5 5 4 4 4 4 5 6 7 8 10 11
3 2 2 1 1 1 3 1 3 2 10 6 7 7 8 27 28 24 23 21 19 18 17 16 14 13 12 10 9 8 7 6 6 5 4 4 3 3 4 5 5 6 7 8 9 9 9 10 11
3 2 5 1 2 3 6 2 7 4 6 4 8 9 17 29 29 28 26 24 21 19 18 16 15 13 12 10 8 7 6 5 5 4 3 2 3 3 3 4 6 7 8 8 9 10 11 12 13
4 4 1 1 3 5 4 5 5 7 3 10 15 16 24 32 29 27 24 20 19 17 17 16 15 13 12 10 8 7 5 5 4 3 2 0 1 3 4 5 7 8 10 11 12 12 13 14 16
2 9 6 2 3 7 5 7 2 11 4 3 10 16 28 33 31 28 23 20 20 18 16 15 15 14 12 11 9 8 6 3 2 1 2 3 4 5 7 8 9 10 12 13 14 16 16 18 19
6 5 8 14 8 12 10 6 6 8 10 6 13 19 29 32 30 26 20 18 17 17 16 15 14 13 12 10 9 6 4 3 1 2 4 5 6 7 9 10 12 13 14 15 16 18 19 20 21
11 16 10 11 15 7 4 5 2 4 11 8 16 21 27 30 29 26 22 19 18 17 16 15 14 13 12 10 8 6 3 2 1 3 5 7 9 10 11 12 13 14 16 18 20 21 22 23 25
6 4 3 6 3 4 3 3 5 4 10 13 18 21 24 27 27 25 22 19 16 15 15 14 13 12 10 8 6 4 3 3 4 5 7 9 11 13 14 15 15 16 17 20 23 23 25 25 25
4 2 3 2 4 2 4 6 2 6 15 17 18 20 22 24 24 21 18 16 14 13 12 12 12 10 8 5 5 4 4 5 7 8 10 12 14 16 17 17 16 19 20 21 22 25 25 25 25
5 3 4 2 2 1 3 5 2 7 15 17 18 22 22 22 22 20 17 15 12 11 11 10 10 9 7 7 5 5 5 7 9 11 13 15 16 18 18 18 18 18 19 20 21 21 23 25 28
7 10 5 5 5 3 4 6 1 6 12 16 18 21 22 22 21 19 17 15 14 13 13 12 12 11 9 8 7 6 7 10 12 14 16 17 18 18 17 17 17 16 18 17 20 22 23 24 24
8 7 10 4 3 5 7 5 5 6 10 12 19 22 20 20 20 20 18 16 16 14 13 12 11 11 10 9 8 9 10 12 14 15 16 16 16 16 16 15 15 17 18 18 19 18 18 19 21
6 13 7 2 2 4 4 7 6 7 7 19 22 22 21 21 21 20 20 18 16 15 13 12 12 10 10 9 10 11 11 11 12 12 13 13 13 13 12 11 12 13 14 14 16 17 19 20 23
10 8 6 4 4 2 5 5 4 4 5 11 15 18 20 22 22 21 20 19 17 16 14 13 12 12 11 10 9 9 9 9 9 9 10 9 9 9 10 10 11 12 14 15 17 18 19 20 21
15 8 6 8 9 5 1 4 5 5 6 5 14 19 22 22 20 20 19 18 16 15 13 12 11 9 9 8 8 8 7 6 4 2 3 5 7 8 9 10 11 13 14 15 17 19 20 21 21
4 9 11 9 9 6 3 2 4 5 5 5 9 17 20 20 18 19 18 17 17 14 13 12 10 9 6 4 4 4 5 4 3 3 4 5 6 8 10 11 12 13 14 16 17 17 19 20 20
8 8 6 3 2 5 12 11 5 6 6 4 6 14 21 22 21 19 18 18 18 15 13 12 10 10 10 8 7 6 5 6 5 4 4 5 8 9 10 11 12 14 15 17 19 20 20 21 21
5 9 1 2 3 2 5 8 4 2 2 7 12 19 24 24 24 23 20 16 18 17 14 14 15 13 12 10 7 6 5 5 3 3 4 5 6 7 10 13 15 18 21 22 23 23 22 22 21
8 5 4 5 5 3 4 5 3 3 6 18 21 22 20 23 25 25 23 19 18 21 17 8 12 11 9 7 5 5 4 4 4 5 5 6 8 11 14 17 20 22 23 23 23 23 23 22 22
3 5 2 5 3 3 3 3 1 2 5 17 25 27 22 20 26 25 24 19 13 19 11 6 4 4 6 5 4 4 4 4 4 4 6 8 10 13 17 20 22 22 22 22 22 22 21 20 21
5 5 4 3 4 2 2 3 3 6 8 8 12 23 29 26 25 25 21 16 9 7 9 11 10 7 5 4 4 3 3 3 3 5 7 10 14 17 20 21 21 22 22 21 21 21 21 21 22
6 4 4 4 1 3 3 4 3 8 11 14 18 23 33 32 22 18 16 17 19 17 14 12 8 4 3 2 1 2 2 2 4 7 11 15 18 20 20 20 20 20 20 20 20 21 21 22 22
3 5 4 3 4 1 1 3 1 3 12 19 22 33 31 25 18 19 22 23 21 16 12 9 7 5 4 1 1 1 1 4 8 12 16 18 18 19 18 17 17 18 18 19 19 19 20 21 22
Wind_Direction
70 128 144 131 70 63 278 287 275 147 144 129 130 149 155 71 131 126 142 148 154 157 156 151 147 149 148 151 148 139 129 122 122 125 119 101 76 21 22 36 50 61 61 68 63 61 59 56 51
1 101 190 144 91 82 277 258 219 169 134 118 108 106 61 85 102 135 141 147 151 153 150 144 138 127 139 151 152 147 144 139 140 145 146 137 352 353 7 18 39 56 60 64 61 54 51 46 41
319 302 266 100 107 176 202 221 175 126 131 151 110 87 84 98 131 138 142 147 152 152 147 143 136 130 133 142 152 158 157 159 163 178 200 242 309 339 5 28 37 46 55 61 53 44 39 34 28
320 272 38 108 185 241 203 209 165 139 85 110 125 76 88 135 135 141 146 149 152 153 147 146 146 142 137 134 145 153 163 170 179 191 214 272 351 23 42 46 48 50 51 51 47 41 36 29 24
313 69 55 132 235 256 242 232 161 138 131 130 127 127 95 131 139 147 147 150 154 155 152 150 151 150 151 156 157 158 157 155 161 163 145 110 84 76 70 66 64 60 55 49 43 36 31 25 19
0 66 79 203 223 257 238 187 163 142 140 148 118 114 146 151 151 152 149 149 156 158 158 157 162 160 157 155 151 148 136 121 115 111 105 96 89 87 77 67 61 56 51 42 33 23 16 11 4
28 72 212 250 191 354 350 146 171 159 147 182 153 101 153 158 155 154 153 152 157 161 164 166 172 170 162 155 148 145 137 119 111 108 103 97 90 86 80 67 53 38 27 17 10 5 357 356 355
325 98 253 253 193 100 354 148 246 167 164 151 172 166 175 166 159 156 158 157 161 167 170 172 174 172 165 157 154 146 133 120 109 110 109 97 87 80 72 58 43 24 6 354 346 348 345 346 346
311 75 230 244 190 44 17 89 142 171 141 159 178 158 165 161 161 162 164 167 169 172 173 172 173 172 171 169 163 154 146 135 118 108 104 97 82 60 41 20 6 356 349 347 343 343 341 338 338
145 182 220 239 348 323 354 314 174 164 148 174 182 167 161 166 168 169 171 172 174 172 172 172 173 175 176 174 172 164 155 140 128 112 93 73 44 19 4 349 343 340 332 330 328 330 329 329 329
154 208 198 128 343 345 345 353 180 156 228 205 200 170 168 171 174 176 175 176 169 164 168 166 168 171 175 174 173 169 165 162 156 148 146 142 316 318 324 328 320 322 322 324 320 319 318 318 318
165 241 256 247 346 336 330 327 256 206 241 278 215 186 172 176 179 181 177 171 171 168 162 163 165 166 167 169 166 170 169 170 181 228 292 309 314 318 314 317 316 317 315 316 314 313 313 314 314
182 229 244 265 278 305 300 286 254 247 234 266 188 177 178 181 181 181 175 172 174 171 169 167 167 167 168 168 167 161 162 167 213 304 312 316 318 319 318 320 320 323 322 317 312 311 312 313 311
195 221 229 261 284 272 263 283 205 241 208 193 178 177 181 186 183 178 179 179 179 175 175 175 172 173 174 177 172 171 176 213 281 320 311 312 311 314 312 312 317 325 323 322 320 316 314 314 315
145 169 213 240 260 227 196 295 232 228 185 174 176 177 183 188 184 184 177 180 177 177 181 180 181 181 176 177 182 190 224 270 301 303 302 303 304 305 307 310 314 317 317 315 312 313 311 312 310
131 174 174 265 182 251 151 269 287 206 187 176 179 181 184 185 187 186 188 183 180 182 182 184 187 189 188 192 212 230 260 287 294 296 299 300 300 300 303 307 312 313 312 309 310 309 309 307 305
170 156 175 252 171 128 162 255 317 202 197 188 183 181 183 185 192 190 196 195 189 186 190 190 193 199 204 210 225 247 272 284 293 297 299 301 303 304 308 308 306 301 305 307 308 307 308 309 308
171 205 192 172 210 153 193 255 331 207 209 199 190 186 184 187 193 194 200 201 199 198 202 202 204 205 215 225 237 254 271 281 287 291 295 299 301 303 306 308 307 301 306 304 303 306 310 312 313
172 174 193 178 196 149 206 236 245 187 201 202 200 192 189 188 194 195 199 204 207 208 214 215 215 218 224 233 243 256 266 277 286 291 295 298 303 307 313 315 312 311 311 316 318 321 321 321 323
207 200 173 45 195 145 194 249 248 177 218 211 199 196 193 193 194 197 201 206 214 214 217 220 223 228 233 243 252 260 267 270 276 285 292 300 307 315 320 323 322 320 321 325 329 334 336 337 340
199 198 168 154 182 81 128 287 202 218 218 209 204 203 199 204 197 196 201 206 210 217 214 218 222 228 238 249 251 254 260 264 270 280 293 308 322 331 335 337 337 339 337 340 342 343 344 342 343
209 185 208 154 175 194 156 261 232 190 196 184 192 191 200 200 195 194 194 196 196 201 205 209 212 217 222 233 252 257 245 234 232 273 324 345 348 349 350 350 350 351 348 347 350 349 345 344 342
206 164 181 178 192 140 212 192 256 141 199 198 194 190 189 189 187 181 179 181 178 182 186 187 194 206 214 194 166 146 145 122 97 54 26 6 359 358 357 356 357 357 359 358 355 351 345 341 336
135 88 48 63 144 221 189 196 226 185 182 151 149 172 168 168 166 164 163 164 163 165 172 175 161 151 136 125 118 116 97 83 68 42 20 4 3 3 3 7 6 1 353 346 342 339 332 327 325
129 137 121 170 187 207 348 200 211 175 145 169 153 152 157 157 154 151 147 150 151 145 140 148 144 140 132 124 114 98 81 77 55 32 19 20 21 13 5 359 349 343 341 336 332 328 326 324 324
158 154 166 177 178 136 352 221 213 279 128 139 141 144 144 147 143 139 135 140 138 132 125 151 132 133 118 107 92 70 57 42 29 27 29 24 11 0 351 342 336 332 328 326 327 327 327 326 324
159 165 108 113 57 110 188 278 323 90 91 129 137 141 139 153 141 136 134 130 133 120 123 150 130 127 118 111 99 76 47 36 27 26 17 3 353 341 334 331 327 327 329 331 330 330 331 332 332
137 143 79 3 132 217 249 266 235 199 165 141 140 139 147 146 136 134 138 136 179 152 184 186 186 176 141 114 89 59 39 20 17 10 346 335 334 329 328 328 331 332 333 334 336 336 337 338 336
133 153 89 116 100 147 143 247 193 190 178 165 158 153 153 152 149 154 146 168 167 175 186 186 168 156 138 119 97 40 11 357 351 335 329 330 328 328 329 330 331 332 334 338 339 338 339 339 339
97 146 143 119 199 262 111 269 257 195 175 168 163 164 171 170 166 174 182 180 180 177 186 182 182 187 184 144 23 7 322 330 330 327 327 327 326 327 330 333 335 336 337 339 340 341 341 342 341